{"data":{"norad_id":51897,"intl_designator":"2022-022AX","name":"STARLINK-3598","alt_names":[],"object_type":"PAYLOAD","status":"ACTIVE","operator":null,"country":"US","launch_date":"2022-03-03","launch_site_code":"AFETR","launch_vehicle":null,"mission":null,"orbit_class":"UNKNOWN","rcs_meters":null,"size_class":null,"mass_kg":null,"dimensions":null,"purposes":["comms"],"wikipedia_slug":null,"has_3d_model":false,"image_url":null,"decayed_at":null,"tle_current":{"epoch":"2026-05-25T00:54:40.239936Z","epoch_age_seconds":65711,"freshness":"FRESH","line1":"1 51897U 22022AX  26145.03796574  .00000413  00000+0  44039-4 0  9998","line2":"2 51897  53.2144  16.3789 0001294  80.3275 279.7863 15.08841922234771","mean_motion":15.08841922,"eccentricity":0.0001294,"inclination_deg":53.2144,"raan_deg":16.3789,"arg_perigee_deg":80.3275,"mean_anomaly_deg":279.7863,"bstar":4.4039e-5,"rev_number":23477,"period_min":95.437433107058,"perigee_km":538.84234122311,"apogee_km":540.63268714738,"semimajor_km":6917.8745141852,"source":"CELESTRAK","updated_at":"2026-05-25T13:38:16.990012Z"}}}